星链-34500 (STARLINK-34500)

导读 | 星芒AI

STARLINK-34500 是 SpaceX 星链计划中的一颗低轨道卫星,属于第十五批发射的星链卫星群。该卫星旨在为全球用户提供高速互联网服务,尤其关注网络覆盖不足的地区。它运行在约 550 公里的高度,配备先进通信设备,支持高频段数据传输。作为星链系统的一部分,STARLINK-34500 有助于提升星座整体的连接能力和稳定性,推动全球宽带接入的普及。

基本信息
目录编号:
64613
目录名称:
STARLINK-34500
国际标识:
2025-137V
轨道中心:
EARTH
卫星名称:
星链-34500
卫星全名:
星链-34500 (STARLINK-34500)
卫星状态:
在轨 (已飞行137 天)
发射日期:
2025-06-25 UTC
国别 :
美国 (US)
星等 :
--
轨道信息
数据来源 国际轨道数据
星历时间: 2025-11-08T22:55:28+0800
1天前
查看轨道信息
半长轴: 6825.295km
偏心率: 0.0001931
轨道倾角: 53.158°
近地点辐角 94.529°
升交点赤经 181.508°
平近点角 265.593°
近地点: 445.842km
远地点: 448.478km
周期: 93.528分钟
每日圈数: 15.396451
详细信息
固有亮度:
5
最大亮度:
2.5
卫星平台:
Starlink V1.0
覆盖范围:
全球
运营商:
太空探索技术公司
运营商所在国:
美国
制造商(研发单位):
太空探索技术公司
制造商所在国:
美国
使用方式:
暂无
卫星简介
Starlink 计划是 SpaceX 推出的全球卫星互联网项目,通过发射低轨道卫星,为全球尤其是偏远地区提供高速、低延迟的互联网服务。自 2019 年起,Starlink 已部署数千颗卫星,旨在缩小全球数字鸿沟,推动互联网普及。该项目还为军事、航空等行业提供通信支持,带来广泛经济效益。
2D轨道图
3D轨道图
轨道高度分析图
轨道倾角分析图
轨道综合分析图
查看轨道综合分析图